Location: Brede
(50.9167°N, 0.6000°E)
Time: 22:54:29
(UTC+00:00)

A-11 Canister half - Visible Passes

Search period start: 25 November 2020 00:00
Search period end: 05 December 2020 00:00
Orbit: 1516 x 1684 km, 47.2° (Epoch: 25 November)

Date Brightness Start Highest point End Pass type
(mag) Time Alt. Az. Time Alt. Az. Time Alt. Az.
25 Nov 10.0 18:13:59 10° W 18:23:25 45° SSW 18:32:48 10° SE visible
25 Nov 11.0 20:20:34 10° W 20:26:24 17° SW 20:32:13 10° SSW visible
26 Nov 10.0 17:51:02 10° W 18:00:32 47° SSW 18:10:00 10° SE visible
26 Nov 11.0 19:57:22 10° W 20:03:37 19° SW 20:09:49 10° SSW visible
27 Nov 10.0 17:28:04 10° W 17:37:39 49° SSW 17:47:11 10° SE visible
27 Nov 11.0 19:34:12 10° W 19:40:48 20° SW 19:47:23 10° S visible
28 Nov 10.0 17:05:08 10° W 17:14:45 51° SSW 17:24:22 10° SE visible
28 Nov 11.0 19:11:04 10° W 19:18:00 21° SW 19:24:54 10° S visible
29 Nov 10.0 16:42:11 10° W 16:51:51 52° SSW 17:01:31 10° SE visible
29 Nov 11.0 18:47:58 10° W 18:55:11 23° SW 19:02:22 10° S visible
30 Nov 10.0 16:19:15 10° W 16:28:57 54° SSW 16:38:41 10° SE visible
30 Nov 11.0 18:24:53 10° W 18:32:21 24° SW 18:39:49 10° S visible
01 Dec 11.0 18:01:49 10° W 18:09:32 26° SW 18:17:14 10° S visible
02 Dec 11.0 17:38:47 10° W 17:46:42 27° SW 17:54:37 10° S visible
03 Dec 11.1 17:15:45 10° W 17:23:52 29° SW 17:32:00 10° S visible
04 Dec 11.1 16:52:45 10° W 17:01:02 30° SW 17:09:19 10° SSE visible
